This is the latest recevied weather packets stored in our database for station/object DL1BWU. If no packets are shown the sender has not sent any weather packets the latest 10 day(s).
| Time | Temp. | Humidity | Pressure | Rain* | Wind** | Luminosity | Snow |
|---|---|---|---|---|---|---|---|
| 1777386928 | 14.44° C | 32% | 1025.5 hPa | 0 mm | - | - | - |
| 1777386328 | 15° C | 31% | 1025.6 hPa | 0 mm | - | - | - |
| 1777385728 | 15° C | 31% | 1025.8 hPa | 0 mm | - | - | - |
| 1777384528 | 15.56° C | 31% | 1026 hPa | 0 mm | - | - | - |
| 1777383328 | 16.11° C | 31% | 1025.9 hPa | 0 mm | - | - | - |
| 1777382128 | 15.56° C | 30% | 1026.2 hPa | 0 mm | - | - | - |
| 1777381529 | 16.11° C | 30% | 1026.2 hPa | 0 mm | - | - | - |
| 1777380929 | 15.56° C | 30% | 1026.3 hPa | 0 mm | - | - | - |
| 1777380329 | 15.56° C | 30% | 1026.4 hPa | 0 mm | - | - | - |
| 1777379729 | 15.56° C | 31% | 1026.3 hPa | 0 mm | - | - | - |
| 1777378529 | 15.56° C | 31% | 1026.5 hPa | 0 mm | - | - | - |
| 1777377929 | 15.56° C | 32% | 1026.5 hPa | 0 mm | - | - | - |
| 1777377329 | 15.56° C | 31% | 1026.6 hPa | 0 mm | - | - | - |
| 1777376729 | 15.56° C | 31% | 1026.7 hPa | 0 mm | - | - | - |
| 1777376129 | 15.56° C | 32% | 1026.8 hPa | 0 mm | - | - | - |
| 1777375529 | 15° C | 33% | 1026.6 hPa | 0 mm | - | - | - |
| 1777374329 | 14.44° C | 33% | 1026.9 hPa | 0 mm | - | - | - |
| 1777373729 | 14.44° C | 34% | 1026.9 hPa | 0 mm | - | - | - |
| 1777372529 | 13.89° C | 34% | 1027 hPa | 0 mm | - | - | - |
| 1777371929 | 13.89° C | 34% | 1027 hPa | 0 mm | - | - | - |
| 1777371329 | 13.33° C | 33% | 1027.2 hPa | 0 mm | - | - | - |
| 1777370729 | 13.33° C | 35% | 1027.1 hPa | 0 mm | - | - | - |
| 1777370129 | 13.33° C | 36% | 1027.2 hPa | 0 mm | - | - | - |
| 1777369529 | 12.78° C | 37% | 1027.3 hPa | 0 mm | - | - | - |
| 1777368929 | 12.22° C | 37% | 1027.2 hPa | 0 mm | - | - | - |
* Rain latest hour (hover to see other rain measurements)
** Current wind speed in m/s (hover to see current wind gust speed)